DMSP 5D-3 F17 DEB

基本信息
目录编号:
29600
目录名称:
DMSP 5D-3 F17 DEB
国际标识:
2006-050BS
轨道中心:
EARTH
物体状态:
在轨
发射日期:
2006-11-04 UTC
轨道信息
数据来源: 国际轨道数据
星历时间: 2026-07-13T23:07:53+0800
半长轴: 7150km
偏心率: 0.0007858
轨道倾角: 98.516°
近地点辐角: 62.971°
升交点赤经: 224.020°
平近点角: 61.433°
近地点: 766.244km
远地点: 777.482km
周期: 100.281分钟
每日圈数: 14.359645
详细信息
发射场:
AFWTR
轨道高度:
LEO
数据来源:
AOE Integration Group
参考系:
TEME
时间系统:
UTC
历元类型:
SGP4
2D轨道图
3D轨道图
轨道高度分析图
轨道倾角分析图
轨道综合分析图
查看轨道综合分析图